"TOA5","AWS1","CR1000","7964","CR1000.Std.14","CPU:AWS1_114.CR1","64363","TBL110"
"TIMESTAMP","RECORD","Wind_spd_WVc(1)","Wind_spd_WVc(2)","Air_Temp_Avg","Humidity_Avg","SW_upper_Wm2_Avg","Rain_Tot","Press_Avg","Issui_Tot","Depth_cm","SR50A_Raw","Quality","Ground_Temp_Avg(1)","Ground_Temp_Avg(2)","SW_lower_Wm2_Avg","Albedo_Avg","SWC_per(1)","SWC_per(2)","Period(1)","Period(2)"
"TS","RN","","","","","","","","","","","","","","","","","","",""
"","","WVc","WVc","Avg","Avg","Avg","Tot","Avg","Tot","Smp","Smp","Smp","Avg","Avg","Avg","Avg","Smp","Smp","Smp","Smp"
"2018-02-15 00:00:00",327805,0.385,112.4,-2.826,80.9,0,0,862.0261,0,110.3,2.088,179,0.94,1.545,0,0,52.21,59.61,33.84,35.59
"2018-02-15 00:10:00",327806,0.306,59.72,-2.873,82.2,0,0,862.026,0,110.3,2.088,186,0.942,1.547,0,0,52.16,59.67,33.83,35.6
"2018-02-15 00:20:00",327807,0.381,69.27,-2.891,82.6,0,0,862.1356,0,110.2,2.089,181,0.941,1.547,0.007584338,0,52.21,59.61,33.84,35.59
"2018-02-15 00:30:00",327808,0.372,103.1,-2.921,82.9,0,0,862.1736,0,110.3,2.089,186,0.94,1.545,0,0,52.16,59.61,33.83,35.59
"2018-02-15 00:40:00",327809,0.494,74.28,-2.838,82.2,0,0,862.0281,0,110.2,2.089,177,0.939,1.544,0.01516856,0,52.21,59.67,33.84,35.6
"2018-02-15 00:50:00",327810,0.721,136.8,-2.858,82,0,0,862.0492,0,110.1,2.09,177,0.939,1.544,0.03792134,0,52.16,59.61,33.83,35.59
"2018-02-15 01:00:00",327811,0.633,86.6,-2.841,82.3,0,0,861.9291,0,110.1,2.09,176,0.939,1.544,0,0,52.21,59.61,33.84,35.59
"2018-02-15 01:10:00",327812,0.447,144,-2.845,82.8,0,0,861.6825,0,110,2.091,181,0.939,1.544,0.01896067,0,52.16,59.67,33.83,35.6
"2018-02-15 01:20:00",327813,0.335,52.09,-2.952,85,0,0,861.7035,0,110,2.092,200,0.939,1.544,0,0,52.21,59.67,33.84,35.6
"2018-02-15 01:30:00",327814,0.527,51.89,-3.142,88.8,0,0,861.8321,0,110,2.092,204,0.939,1.544,0,0,52.21,59.61,33.84,35.59
"2018-02-15 01:40:00",327815,0.314,83.8,-3.272,92.3,0,0,861.7731,0,107.9,2.114,200,0.939,1.544,0,0,52.21,59.61,33.84,35.59
"2018-02-15 01:50:00",327816,0.469,101.9,-3.29,94.4,0,0,861.8068,0,109.9,2.094,187,0.939,1.544,0,0,52.21,59.61,33.84,35.59
"2018-02-15 02:00:00",327817,0.314,109.3,-3.277,97.1,0,0,861.9249,0,110.7,2.085,250,0.939,1.544,0,0,52.21,59.67,33.84,35.6
"2018-02-15 02:10:00",327818,0.267,63.06,-3.262,99.9,0,0,861.7605,0,108.9,2.103,194,0.939,1.544,0.1592696,0,52.21,59.67,33.84,35.6
"2018-02-15 02:20:00",327819,0.609,137.4,-3.283,100,0,0,861.5096,0,108.8,2.105,200,0.939,1.544,0.1175562,0,52.16,59.67,33.83,35.6
"2018-02-15 02:30:00",327820,0.348,90.2,-3.146,100,0,0,861.4337,0,109.7,2.095,197,0.939,1.544,0.2275281,0,52.21,59.61,33.84,35.59
"2018-02-15 02:40:00",327821,0.526,122.5,-3.108,100,0,0,861.4802,0,110.1,2.091,202,0.939,1.544,0.2275281,0,52.21,59.67,33.84,35.6
"2018-02-15 02:50:00",327822,0.663,135.9,-3.067,100,0,0,861.1956,0,110.4,2.087,174,0.939,1.544,0.1516854,0,52.21,59.61,33.84,35.59
"2018-02-15 03:00:00",327823,0.414,76.57,-2.895,100,0,0,861.1408,0,110.5,2.086,205,0.939,1.544,0.197191,0,52.21,59.61,33.84,35.59
"2018-02-15 03:10:00",327824,0.393,82.8,-2.927,100,0,0.5,861.027,0.5,110.9,2.082,198,0.939,1.544,0.0113764,0,52.21,59.61,33.84,35.59
"2018-02-15 03:20:00",327825,0.348,40.88,-2.85,100,0,0,861.1682,0,110.8,2.083,197,0.939,1.544,0.2199438,0,52.16,59.67,33.83,35.6
"2018-02-15 03:30:00",327826,0.474,74.97,-2.817,100,0,0,861.2399,0,111.2,2.078,229,0.938,1.544,0.1744382,0,52.16,59.67,33.83,35.6
"2018-02-15 03:40:00",327827,0.345,110.5,-2.762,100,0,0,861.2736,0.5,111.5,2.075,173,0.938,1.544,0.1023876,0,52.21,59.67,33.84,35.6
"2018-02-15 03:50:00",327828,0.24,122.5,-2.767,100,0,0.5,861.2673,0,112,2.071,194,0.939,1.544,0.01896067,0,52.21,59.67,33.84,35.6
"2018-02-15 04:00:00",327829,0.379,99.4,-2.733,100,0,0,861.2588,0.5,112.1,2.069,193,0.939,1.544,0.1403089,0,52.21,59.67,33.84,35.6
"2018-02-15 04:10:00",327830,0.55,70.06,-2.636,100,0,0.5,861.0923,0,112,2.07,176,0.939,1.544,0.2199438,0,52.21,59.67,33.84,35.6
"2018-02-15 04:20:00",327831,0.388,40,-2.61,100,0,0,861.0776,0.5,112.2,2.068,199,0.938,1.544,0.1858146,0,52.16,59.67,33.83,35.6
"2018-02-15 04:30:00",327832,0.168,36.81,-2.585,100,0,0,861.2756,0,112.4,2.066,226,0.939,1.544,0.04550561,0,52.16,59.67,33.83,35.6
"2018-02-15 04:40:00",327833,0.316,92.3,-2.606,100,0,0.5,861.5033,0.5,112.5,2.065,197,0.933,1.544,0,0,52.21,59.61,33.84,35.59
"2018-02-15 04:50:00",327834,0.291,55.19,-2.565,100,0,0,861.5202,0,112.6,2.064,199,0.932,1.544,0.05688201,0,52.21,59.67,33.84,35.6
"2018-02-15 05:00:00",327835,0.288,72,-2.519,100,0,0.5,861.3768,0,112.7,2.063,189,0.927,1.544,0,0,52.16,59.67,33.83,35.6
"2018-02-15 05:10:00",327836,0.392,130.8,-2.536,100,0,0,861.086,0,112.6,2.063,197,0.919,1.544,0.0113764,0,52.21,59.61,33.84,35.59
"2018-02-15 05:20:00",327837,0.212,89.4,-2.413,100,0,0,861.2441,0.5,112.7,2.062,196,0.91,1.544,0.01896067,0,52.21,59.67,33.84,35.6
"2018-02-15 05:30:00",327838,0.589,124.6,-2.48,100,0,0.5,861.0291,0,112.8,2.062,173,0.911,1.544,0,0,52.21,59.67,33.84,35.6
"2018-02-15 05:40:00",327839,0.471,84.3,-2.463,100,0,0,861.1534,0,112.7,2.062,173,0.9,1.544,0.07963482,0,52.21,59.67,33.84,35.6
"2018-02-15 05:50:00",327840,0.361,134.2,-2.377,100,0,0,861.1492,0,112.7,2.062,191,0.907,1.544,0.03412921,0,52.21,59.67,33.84,35.6
"2018-02-15 06:00:00",327841,0.472,144.8,-2.457,100,0,0,861.124,0,112.8,2.062,195,0.9,1.544,0,0,52.21,59.67,33.84,35.6
"2018-02-15 06:10:00",327842,0.322,134.2,-2.455,100,0,0,861.0207,0,112.7,2.062,195,0.898,1.544,0,0,52.21,59.61,33.84,35.59
"2018-02-15 06:20:00",327843,0.403,152,-2.418,100,0,0,861.1724,0,112.7,2.062,195,0.897,1.544,0,0,52.21,59.61,33.84,35.59
"2018-02-15 06:30:00",327844,0.527,151,-2.328,100,0,0,861.0587,0,112.7,2.062,194,0.896,1.544,0.07584269,0,52.21,59.67,33.84,35.6
"2018-02-15 06:40:00",327845,0.602,138.3,-2.318,100,0,0,861.3262,0,112.6,2.063,195,0.896,1.544,0.2502808,0,52.21,59.67,33.84,35.6
"2018-02-15 06:50:00",327846,0.557,148.2,-2.216,100,0,0,861.3642,0,112.6,2.062,194,0.895,1.544,0.565028,0,52.16,59.61,33.83,35.59
"2018-02-15 07:00:00",327847,0.554,137.3,-2.156,100,0.2359784,0,861.5202,0,112.6,2.062,175,0.896,1.544,1.122472,2.852,52.21,59.61,33.84,35.59
"2018-02-15 07:10:00",327848,0.158,133.9,-2.039,100,0.7905275,0,861.5876,0,112.5,2.062,196,0.891,1.544,2.271488,2.943,52.21,59.67,33.84,35.6
"2018-02-15 07:20:00",327849,0.036,107.3,-1.979,100,1.352943,0,861.6846,0.5,112.2,2.065,182,0.896,1.544,3.511516,2.602,52.21,59.67,33.84,35.6
"2018-02-15 07:30:00",327850,0.277,131.7,-2.007,100,1.89176,0,861.8132,0,112.5,2.062,190,0.894,1.544,4.963903,2.641,52.21,59.67,33.84,35.6
"2018-02-15 07:40:00",327851,0.256,119.6,-1.986,100,2.316521,0,862.0155,0,112.6,2.061,192,0.889,1.544,5.790589,2.51,52.21,59.67,33.84,35.6
"2018-02-15 07:50:00",327852,0.423,110.7,-1.963,100,3.260434,0.5,862.1145,0,112.6,2.061,179,0.877,1.544,8.122751,2.481,52.21,59.67,33.84,35.6
"2018-02-15 08:00:00",327853,0.128,99.4,-1.908,100,3.795319,0,862.0323,0,112.6,2.061,179,0.882,1.544,9.34761,2.464,52.21,59.67,33.84,35.6
"2018-02-15 08:10:00",327854,0.289,139.5,-1.917,100,5.612352,0,862.0281,0,112.6,2.061,186,0.889,1.544,14.42528,2.565,52.21,59.67,33.84,35.6
"2018-02-15 08:20:00",327855,0.334,150.3,-1.808,100,9.356542,0,862.0261,0,112.5,2.061,181,0.882,1.544,23.7653,2.535,52.21,59.67,33.84,35.6
"2018-02-15 08:30:00",327856,0.451,143.3,-1.684,100,15.16161,0,861.8637,0,112.5,2.061,190,0.906,1.55,37.81895,2.494,52.21,59.67,33.84,35.6
"2018-02-15 08:40:00",327857,0.585,147.1,-1.614,100,12.55405,0,861.7626,0,112.4,2.062,184,0.92,1.553,30.9969,2.469,52.16,59.67,33.83,35.6
"2018-02-15 08:50:00",327858,0.642,159.3,-1.463,99.9,12.14502,0,861.7352,0,112.4,2.061,180,0.917,1.556,29.68862,2.445,52.21,59.67,33.84,35.6
"2018-02-15 09:00:00",327859,0.493,152.5,-1.31,97,13.60415,0,861.7605,0,112.3,2.062,187,0.937,1.578,33.35182,2.452,52.16,59.67,33.83,35.6
"2018-02-15 09:10:00",327860,0.366,128.8,-1.274,95.5,9.954354,0,861.6382,0,112.2,2.062,180,0.94,1.594,24.72092,2.484,52.21,59.67,33.84,35.6
"2018-02-15 09:20:00",327861,0.515,150.5,-1.114,93.8,10.37518,0,861.556,0,112.2,2.062,185,0.941,1.583,25.61587,2.469,52.21,59.67,33.84,35.6
"2018-02-15 09:30:00",327862,0.465,132.8,-1.117,94.3,10.18247,0,861.596,0,112.1,2.063,194,0.954,1.577,24.81952,2.438,52.21,59.67,33.84,35.6
"2018-02-15 09:40:00",327863,0.601,138.3,-1.049,94.2,20.47899,0,861.5202,0,112.1,2.063,195,0.961,1.584,49.86656,2.432,52.21,59.67,33.84,35.6
"2018-02-15 09:50:00",327864,0.151,150.6,-0.954,93.6,15.04755,0,861.596,0,112,2.063,195,0.955,1.581,36.27555,2.412,52.21,59.67,33.84,35.6
"2018-02-15 10:00:00",327865,0.278,137.5,-0.92,92.3,13.0614,0,861.6993,0,112,2.064,197,0.965,1.562,31.29648,2.392,52.21,59.67,33.84,35.6
"2018-02-15 10:10:00",327866,0.098,106.6,-0.868,92.8,10.97693,0,861.752,0,111.9,2.064,197,1.001,1.555,26.64733,2.428,52.21,59.67,33.84,35.6
"2018-02-15 10:20:00",327867,0.095,92.7,-0.88,93.1,9.934689,0,861.7752,0,111.8,2.065,199,1.024,1.55,23.8639,2.402,52.21,59.67,33.84,35.6
"2018-02-15 10:30:00",327868,0.147,105.8,-0.868,94.3,13.33278,0,861.7288,0,111.9,2.065,198,1.025,1.548,31.89564,2.403,52.21,59.67,33.84,35.6
"2018-02-15 10:40:00",327869,0.147,135.7,-0.904,95.5,11.88938,0,861.8237,0,112.1,2.062,227,1.025,1.543,28.29311,2.377,52.21,59.67,33.84,35.6
"2018-02-15 10:50:00",327870,0.151,78.83,-0.812,96.5,8.125522,0,861.8912,0,112,2.064,211,1.025,1.554,19.65084,2.42,52.21,59.67,33.84,35.6
"2018-02-15 11:00:00",327871,0.263,303,-1.1,99.4,7.586704,0,861.6993,0,111.8,2.066,171,1.025,1.554,17.3566,2.281,52.21,59.67,33.84,35.6
"2018-02-15 11:10:00",327872,0.025,282.2,-1.084,100,11.52361,0,861.6804,0.5,111.8,2.066,173,1.025,1.565,27.50056,2.383,52.21,59.67,33.84,35.6
"2018-02-15 11:20:00",327873,0.137,151.4,-0.986,100,18.23719,0,861.5154,0,111.9,2.065,171,1.025,1.556,44.14044,2.412,52.21,59.67,33.84,35.6
"2018-02-15 11:30:00",327874,0.324,120.2,-0.904,99.8,27.6252,0,861.1938,0,111.7,2.066,170,1.025,1.568,65.24367,2.348,52.16,59.67,33.83,35.6
"2018-02-15 11:40:00",327875,0.394,80.8,-0.932,99.8,26.20146,0,861.0031,0,111.7,2.066,171,1.025,1.581,62.7674,2.375,52.21,59.67,33.84,35.6
"2018-02-15 11:50:00",327876,0.469,117.9,-0.912,100,27.62095,0.5,860.9738,0,111.7,2.066,171,1.022,1.61,64.1963,2.322,52.21,59.67,33.84,35.6
"2018-02-15 12:00:00",327877,0.306,79.87,-0.777,100,34.5233,0,860.9367,0,111.7,2.066,170,1.023,1.624,82.75115,2.387,52.21,59.67,33.84,35.6
"2018-02-15 12:10:00",327878,0.195,62.01,-0.536,98.3,33.3705,0,860.746,0,111.6,2.067,170,1.019,1.624,79.78846,2.385,52.21,59.67,33.84,35.6
"2018-02-15 12:20:00",327879,0.107,29.39,-0.704,97.1,22.33768,0,860.6854,0,111.6,2.067,170,1.006,1.612,53.79136,2.411,52.21,59.67,33.84,35.6
"2018-02-15 12:30:00",327880,0.08,164.5,-0.823,98.6,16.22099,0,860.433,0,111.5,2.068,170,0.986,1.588,38.7154,2.366,52.21,59.67,33.84,35.6
"2018-02-15 12:40:00",327881,0.13,112.3,-0.57,99.4,72.36894,0,860.2145,0,111.4,2.066,170,0.959,1.556,184.7955,2.527,52.21,59.67,33.84,35.6
"2018-02-15 12:50:00",327882,0.441,10.33,-0.201,91.6,29.03274,0,860.0324,0,111.5,2.068,170,0.871,1.525,77.80364,2.739,52.21,59.67,33.84,35.6
"2018-02-15 13:00:00",327883,0.192,36.68,-0.649,93.8,35.16112,0,859.8399,0,111.3,2.069,170,0.859,1.512,87.45603,2.481,52.21,59.67,33.84,35.6
"2018-02-15 13:10:00",327884,0.238,4.181,-0.492,94.6,28.83473,0,859.8312,0,111.3,2.07,170,0.853,1.505,75.22203,2.607,52.21,59.67,33.84,35.6
"2018-02-15 13:20:00",327885,0.313,330.7,-0.785,96.9,21.08928,0,859.6627,0,111.4,2.069,170,0.854,1.507,49.68658,2.347,52.21,59.67,33.84,35.6
"2018-02-15 13:30:00",327886,0.607,349,-0.58,92.6,66.95173,0.5,859.5026,0.5,111.3,2.07,195,0.853,1.508,170.9024,2.551,52.16,59.67,33.83,35.6
"2018-02-15 13:40:00",327887,0.696,315.8,-0.875,89.6,23.86892,0,859.6458,0,111,2.074,197,0.852,1.513,57.13552,2.4,52.21,59.67,33.84,35.6
"2018-02-15 13:50:00",327888,0.409,264.9,-1.126,91.7,17.07507,0,859.9177,0,110.6,2.079,173,0.855,1.505,35.82721,2.069,52.21,59.67,33.84,35.6
"2018-02-15 14:00:00",327889,0.424,305.2,-1.527,92.8,24.42721,0,860.0672,0,111.1,2.075,181,0.867,1.506,50.48639,2.054,52.21,59.67,33.84,35.6
"2018-02-15 14:10:00",327890,0.294,70.29,-1.444,92.1,29.0744,0,860.1031,0,111.1,2.075,205,0.885,1.517,66.34347,2.261,52.21,59.67,33.84,35.6
"2018-02-15 14:20:00",327891,0.369,102.3,-1.395,89.6,28.38243,0,859.9914,0,110.9,2.076,208,0.874,1.505,70.55888,2.48,52.16,59.67,33.83,35.6
"2018-02-15 14:30:00",327892,0.311,296.6,-1.46,89.3,16.88635,0,860.084,0,110.8,2.078,202,0.887,1.507,42.67726,2.524,52.21,59.67,33.84,35.6
"2018-02-15 14:40:00",327893,0.251,26.14,-1.509,90.3,15.54959,0,860.3959,0,109.3,2.094,222,0.91,1.515,40.28524,2.561,52.21,59.67,33.84,35.6
"2018-02-15 14:50:00",327894,0.162,27.55,-1.685,94.1,10.8395,0,860.4085,0,111.1,2.076,197,0.927,1.534,27.65796,2.536,52.21,59.67,33.84,35.6
"2018-02-15 15:00:00",327895,0.264,342.4,-1.714,97,10.19078,0,860.4191,0,111.2,2.075,171,0.934,1.534,26.9377,2.64,52.21,59.67,33.84,35.6
"2018-02-15 15:10:00",327896,0.102,343.2,-1.669,99.5,17.08293,0,860.3495,0.5,111.4,2.072,192,0.936,1.541,49.9443,2.889,52.21,59.67,33.84,35.6
"2018-02-15 15:20:00",327897,0.285,275,-1.568,96.5,21.71046,0,860.278,0,111.4,2.072,192,0.935,1.541,63.56858,2.922,52.21,59.67,33.84,35.6
"2018-02-15 15:30:00",327898,0.384,272.4,-1.613,90.8,14.67284,0,860.2484,0,111.4,2.073,192,0.935,1.54,42.16929,2.879,52.21,59.67,33.84,35.6
"2018-02-15 15:40:00",327899,0.181,345.6,-1.671,89,20.36584,0,860.1662,0,111.3,2.073,192,0.936,1.539,60.21747,2.951,52.21,59.67,33.84,35.6
"2018-02-15 15:50:00",327900,0.498,216,-1.467,88.1,14.04378,0.5,860.318,0,111.2,2.074,192,0.936,1.541,40.93348,2.92,52.21,59.67,33.84,35.6
"2018-02-15 16:00:00",327901,0.6,321,-1.764,84.9,19.07233,0,860.28,0,111.2,2.074,192,0.936,1.541,54.02703,2.829,52.21,59.67,33.84,35.6
"2018-02-15 16:10:00",327902,0.556,306.1,-1.771,84.3,14.70429,0,860.2294,0,111.2,2.075,192,0.936,1.541,42.62419,2.896,52.21,59.61,33.84,35.59
"2018-02-15 16:20:00",327903,0.272,313.3,-1.953,85,8.657447,0,860.1894,0,111.2,2.076,192,0.936,1.541,23.85575,2.75,52.16,59.67,33.83,35.6
"2018-02-15 16:30:00",327904,0.39,270.3,-2.165,83.8,6.050778,0,860.4064,0,111.1,2.077,192,0.936,1.541,14.8563,2.431,52.21,59.67,33.84,35.6
"2018-02-15 16:40:00",327905,0.37,46.26,-2.282,84.4,5.012827,0,860.4233,0,111.1,2.078,190,0.936,1.541,12.11173,2.339,52.21,59.67,33.84,35.6
"2018-02-15 16:50:00",327906,1.154,296.3,-2.572,80.4,3.797954,0,860.5371,0,111.1,2.079,192,0.936,1.541,8.241283,2.133,52.21,59.67,33.84,35.6
"2018-02-15 17:00:00",327907,1.304,294.4,-2.825,80.8,1.918635,0,860.6741,0,111.1,2.08,191,0.936,1.513,3.605088,1.846,52.16,59.67,33.83,35.6
"2018-02-15 17:10:00",327908,0.806,265.1,-2.966,81.2,1.42325,0,860.752,0,111,2.081,170,0.936,1.483,3.38901,2.333,52.21,59.67,33.84,35.6
"2018-02-15 17:20:00",327909,0.613,297.9,-3.169,80.7,1.010429,0,860.7941,0,110.9,2.083,174,0.936,1.472,2.596725,2.518,52.16,59.61,33.83,35.59
"2018-02-15 17:30:00",327910,1.11,305.9,-3.365,80.3,0,0,860.8645,0,111,2.083,170,0.936,1.515,0.1667969,0,52.21,59.67,33.84,35.6
"2018-02-15 17:40:00",327911,0.826,268.6,-3.493,80.1,0,0,860.8524,0,110.9,2.084,170,0.933,1.547,0,0,52.21,59.67,33.84,35.6
"2018-02-15 17:50:00",327912,0.922,298.2,-3.674,79.72,0,0,860.7167,0,110.9,2.086,169,0.916,1.559,0,0,52.21,59.67,33.84,35.6
"2018-02-15 18:00:00",327913,0.315,282.8,-3.734,81.2,0,0,860.8137,0,110.8,2.086,168,0.926,1.541,0,0,52.21,59.67,33.84,35.6
"2018-02-15 18:10:00",327914,0.361,204.2,-3.729,82.3,0,0,860.7867,0,110.8,2.087,170,0.934,1.548,0.1782186,0,52.21,59.67,33.84,35.6
"2018-02-15 18:20:00",327915,0.637,175.3,-3.934,82.2,0,0,860.9095,0,110.8,2.088,170,0.934,1.544,0.2275206,0,52.21,59.67,33.84,35.6
"2018-02-15 18:30:00",327916,0.467,208.7,-4.026,81.8,0,0,860.9727,0,110.7,2.089,169,0.932,1.542,0.1099706,0,52.16,59.67,33.83,35.6
"2018-02-15 18:40:00",327917,0.465,246.3,-4.21,80.3,0,0,861.0209,0,110.7,2.09,170,0.909,1.543,0.02275268,0,52.21,59.67,33.84,35.6
"2018-02-15 18:50:00",327918,0.485,240.6,-4.469,80.6,0,0,861.0624,0,110.6,2.092,173,0.907,1.544,0,0,52.16,59.67,33.83,35.6
"2018-02-15 19:00:00",327919,0.384,219.8,-4.632,81.9,0,0,861.0754,0,110.4,2.094,170,0.926,1.544,0.1365167,0,52.21,59.67,33.84,35.6
"2018-02-15 19:10:00",327920,0.362,264.2,-4.742,81.7,0,0,861.2462,0,110.5,2.094,178,0.939,1.544,0.291994,0,52.21,59.67,33.84,35.6
"2018-02-15 19:20:00",327921,0.222,220.4,-4.926,82.6,0,0,861.3221,0,110.4,2.096,169,0.939,1.544,0.0758426,0,52.21,59.67,33.84,35.6
"2018-02-15 19:30:00",327922,0.016,30.95,-5.103,84.6,0,0,861.4464,0,110.5,2.095,191,0.939,1.546,0.03412917,0,52.21,59.67,33.84,35.6
"2018-02-15 19:40:00",327923,0.062,329.2,-5.151,85.1,0,0,861.5202,0,110.4,2.096,178,0.939,1.554,0.2995783,0,52.21,59.67,33.84,35.6
"2018-02-15 19:50:00",327924,0.083,11.27,-5.324,84,0,0,861.5159,0,110.3,2.099,191,0.939,1.563,0.2730334,0,52.16,59.67,33.83,35.6
"2018-02-15 20:00:00",327925,0.076,283.4,-5.589,85.5,0,0,861.5054,0,110.5,2.096,191,0.939,1.586,0.2540727,0,52.21,59.67,33.84,35.6
"2018-02-15 20:10:00",327926,0.441,253.8,-5.453,82.8,0,0,861.5117,0,110,2.102,189,0.939,1.584,0.8683978,0,52.21,59.67,33.84,35.6
"2018-02-15 20:20:00",327927,0.281,199.5,-5.961,86.1,0,0,861.5202,0,110.2,2.102,190,0.939,1.584,0.2313199,0,52.16,59.67,33.83,35.6
"2018-02-15 20:30:00",327928,0.271,191.1,-6.279,88.1,0,0,861.4633,0,110.1,2.103,189,0.958,1.547,0.07205047,0,52.21,59.67,33.84,35.6
"2018-02-15 20:40:00",327929,0.115,179.8,-6.531,89.5,0,0,861.2841,0,110,2.106,191,0.955,1.543,0.09101113,0,52.21,59.67,33.84,35.6
"2018-02-15 20:50:00",327930,0.31,233.7,-6.381,92.1,0,0,861.3958,0,110.1,2.103,191,0.952,1.543,0.3905894,0,52.21,59.67,33.84,35.6
"2018-02-15 21:00:00",327931,0.429,195.4,-6.37,91.8,0,0,861.5202,0,109.9,2.107,190,0.956,1.54,0.4664328,0,52.16,59.67,33.83,35.6
"2018-02-15 21:10:00",327932,0.16,26.49,-6.63,93.2,0,0,861.7436,0,110.2,2.102,186,0.941,1.545,0.2313225,0,52.16,59.67,33.83,35.6
"2018-02-15 21:20:00",327933,0.227,356,-6.028,90.7,0,0,861.5476,0,109.9,2.104,191,0.941,1.539,0.9783819,0,52.16,59.67,33.83,35.6
"2018-02-15 21:30:00",327934,0.186,28.49,-6.146,89,0,0,861.5582,0,109.8,2.106,190,0.945,1.54,0.4057671,0,52.21,59.67,33.84,35.6
"2018-02-15 21:40:00",327935,0.057,146.1,-6.544,90.3,0,0,861.4717,0,109.7,2.109,190,0.958,1.544,0.1023935,0,52.21,59.67,33.84,35.6
"2018-02-15 21:50:00",327936,0.077,348,-6.79,91.5,0,0,861.2673,0,109.8,2.108,190,0.969,1.537,0.1517052,0,52.16,59.67,33.83,35.6
"2018-02-15 22:00:00",327937,0.15,46,-6.733,89.2,0,0,861.3558,0,109.9,2.108,192,0.982,1.572,0.2692874,0,52.21,59.67,33.84,35.6
"2018-02-15 22:10:00",327938,0.279,6.757,-6.914,85.5,0,0,861.3034,0,109.9,2.108,190,0.991,1.58,0.3754993,0,52.21,59.67,33.84,35.6
"2018-02-15 22:20:00",327939,0.033,33.09,-7.171,84.5,0,0,861.3315,0,109.6,2.115,192,0.996,1.568,0.1820616,0,52.16,59.67,33.83,35.6
"2018-02-15 22:30:00",327940,0,0,-8.07,88.9,0,0,861.2886,0,109.6,2.116,191,1.003,1.57,0,0,52.21,59.67,33.84,35.6
"2018-02-15 22:40:00",327941,0.008,33.09,-8.23,89.6,0,0,861.2949,0,109.6,2.117,182,1.003,1.579,0.01137988,0,52.21,59.67,33.84,35.6
"2018-02-15 22:50:00",327942,0.089,33.09,-8.23,88.5,0,0,861.3204,0,109.4,2.118,190,0.964,1.587,0.2958837,0,52.21,59.67,33.84,35.6
"2018-02-15 23:00:00",327943,0.147,33.1,-8.49,88,0,0,861.3707,0,109.5,2.119,192,0.954,1.602,0.2731255,0,52.21,59.67,33.84,35.6
"2018-02-15 23:10:00",327944,0.088,33.09,-8.64,87.9,0,0,861.5434,0,109.5,2.118,192,0.956,1.617,0.3527883,0,52.21,59.67,33.84,35.6
"2018-02-15 23:20:00",327945,0.125,33.09,-8.87,86.7,0,0,861.6098,0,109.6,2.119,190,0.963,1.629,0.3376149,0,52.21,59.67,33.84,35.6
"2018-02-15 23:30:00",327946,0.016,33.09,-8.69,89.1,0,0,861.6101,0,109.3,2.12,191,0.978,1.631,0.5083192,0,52.21,59.67,33.84,35.6
"2018-02-15 23:40:00",327947,0.096,109.9,-8.95,88.5,0,0,861.6101,0,109.5,2.12,191,0.987,1.631,0.4514178,0,52.21,59.67,33.84,35.6
"2018-02-15 23:50:00",327948,0.055,147,-8.88,90.7,0,0,861.5658,0,109.4,2.12,190,0.986,1.628,0.8079999,0,52.32,59.67,33.87,35.6
